Regional Weather Roundup
Issued by NWS

Home | Current Version | Previous Version | Text Only | Print | Product List | Glossary Off
Versions: 1 2 3 4 5 6 7 8 9 10 11 12 13 14 15 16 17 18 19 20 21 22 23 24 25 26 27 28 29 30 31 32 33 34 35 36 37 38 39 40 41 42 43 44 45 46 47 48 49 50

000
ASUS43 KOAX 252010
RWRNE

WEATHER ROUNDUP FOR NEBRASKA
NATIONAL WEATHER SERVICE OMAHA NE
300 PM CDT WED MAY 25 2016

NOTES: SATELLITE DATA IS BEING USED TO AUGMENT CLOUD COVER ABOVE
       12000 FEET.
       "FAIR" INDICATES FEW OR NO CLOUDS BELOW 12,000 FEET WITH NO
       SIGNIFICANT WEATHER AND/OR OBSTRUCTIONS TO VISIBILITY.

  * THESE STATIONS DO NOT REPORT WEATHER SUCH AS RAIN...SNOW OR FOG.

NEZ001>004-019>022-054>056-252100-
NEBRASKA PANHANDLE

CITY           SKY/WX    TMP DP  RH WIND       PRES   REMARKS
SCOTTSBLUFF    MOSUNNY   72  36  26 W13G24    29.92F
ALLIANCE       CLOUDY    70  44  39 SW15      29.92R
CHADRON        CLOUDY    71  48  43 NW15G21   29.89R
KIMBALL        PTSUNNY   66  36  32 NW8       29.98S
SIDNEY         PTSUNNY   69  39  33 NW15      29.97R
$$

NEZ057>060-069>072-079>082-252100-
SOUTHWEST NEBRASKA

CITY           SKY/WX    TMP DP  RH WIND       PRES   REMARKS
NORTH PLATTE   SUNNY     76  56  49 W8        29.88F
IMPERIAL       SUNNY     74  50  42 N6        29.92S
LEXINGTON      SUNNY     76  57  52 NW3       29.88S
MCCOOK         SUNNY     79  53  40 CALM      29.88S
OGALLALA       SUNNY     74  52  45 S7G16     29.91S
$$

NEZ005>010-023>029-035>040-094-252100-
NORTH CENTRAL NEBRASKA

CITY           SKY/WX    TMP DP  RH WIND       PRES   REMARKS
VALENTINE      SUNNY     78  49  35 W13       29.83F
AINSWORTH      MOSUNNY   77  54  45 W13       29.84F
BROKEN BOW     SUNNY     75  56  51 VRB5      29.87F
O`NEILL        MOSUNNY   78  56  45 W15       29.83F
ORD            MOSUNNY   78  58  49 SW10      29.84S
THEDFORD       SUNNY     78  55  43 W15G22    29.87F
$$

NEZ041-046>049-061>064-073>077-083>087-252100-
SOUTH CENTRAL NEBRASKA

CITY           SKY/WX    TMP DP  RH WIND       PRES   REMARKS
GRAND ISLAND   PTSUNNY   78  62  57 SW6       29.86S
AURORA         CLOUDY    76  64  65 SW12      29.86R
HASTINGS       CLOUDY    72  63  73 SW8       29.87R
HEBRON         PTSUNNY   75  67  76 S15       29.85S
HOLDREGE       MOSUNNY   74  60  60 CALM      29.87F
KEARNEY *      CLOUDY    73  61  64 SW3       29.88S
YORK           CLOUDY    75  64  69 SW13      29.85S
$$

NEZ011>018-030>034-042>045-252100-
NORTHEAST NEBRASKA

CITY           SKY/WX    TMP DP  RH WIND       PRES   REMARKS
NORFOLK        PTSUNNY   80  59  48 SW14G20   29.82F
ALBION         MOSUNNY   77  60  55 SW7       29.84F
BLAIR          CLOUDY    77  65  66 S7        29.85S
FREMONT        CLOUDY    77  62  59 S5        29.85S
TEKAMAH        MOSUNNY   82  60  47 S16G25    29.83S
WAYNE          PTSUNNY   78  63  58 SW13G22   29.83S
$$

NEZ050>053-065>068-078-088>093-252100-
SOUTHEAST NEBRASKA

CITY           SKY/WX    TMP DP  RH WIND       PRES   REMARKS
LINCOLN        CLOUDY    77  65  66 S17       29.84R
OMAHA EPPLEY   PTSUNNY   79  62  56 S9        29.83F
BEATRICE       CLOUDY    74  66  75 S14G26    29.85S
FALLS CITY     SUNNY     79  65  62 S17G25    29.86F
NEBRASKA CITY  PTSUNNY   77  65  68 S20G25    29.86S
PLATTSMOUTH    PTSUNNY   80  65  59 S16G26    29.85R
$$

NEZ044-045-051>053-067-252100-
OMAHA AREA

CITY           SKY/WX    TMP DP  RH WIND       PRES   REMARKS
OMAHA EPPLEY   PTSUNNY   79  62  56 S9        29.83F
BLAIR          CLOUDY    77  65  66 S7        29.85S
FREMONT        CLOUDY    77  62  59 S5        29.85S
MILLARD        CLOUDY    79  64  59 S10       29.84R
OFFUTT AFB     CLOUDY    80  64  59 S15       29.83S
PLATTSMOUTH    PTSUNNY   80  65  59 S16G26    29.85R
WAHOO          CLOUDY    77  64  63 SW13      29.84S
$$




USA.gov is the U.S. government's official web portal to all federal, state and local government web resources and services.